Meteo Giornale » Osservazioni meteo Cina » Shenyang-Taokian
ore: 17:30 - Osservazioni Meteo Shenyang-Taokian
Lat. 41° 48' N Lon. 123° 24' E Alt. 35 metri s.l.m.
24 °C
Sereno
Temp. 24 Ore
17 °C
26 °C
Nord/Nord-Est
10.8 Km/h
Dew point 12 °C
Umidità 47 %
Visibilità 10 Km
Il sole sorge alle ore 05:11
Il sole tramonta alle ore 18:21
| Data e Ora | Cielo e Fenomeni | T °C | DP °C | Um. % | Pres. hPa | Vis. km | Vento km/h | |
|---|---|---|---|---|---|---|---|---|
| Oggi h: 17:30 | Sereno | 24 | 12 | 47 | 1015 | 10 | N/NE 10.8 | |
| Oggi h: 17:00 | Sereno | 25 | 12 | 44 | 1015 | 10 | N/NE 10.8 | |
| Oggi h: 16:30 | Sereno | 25 | 12 | 44 | 1015 | 10 | N 7.2 | |
| Oggi h: 16:00 | Sereno | 26 | 11 | 39 | 1015 | 10 | N/NE 14.4 | |
| Oggi h: 15:30 | Sereno | 26 | 10 | 36 | 1015 | 10 | N/NE 14.4 | |
| Oggi h: 15:00 | Sereno | 25 | 11 | 41 | 1015 | 10 | N/NE 14.4 | |
| Oggi h: 14:30 | Sereno | 26 | 11 | 39 | 1015 | 10 | N/NE 14.4 | |
| Oggi h: 14:00 | Sereno | 26 | 11 | 39 | 1015 | 10 | N 10.8 | |
| Oggi h: 13:30 | Sereno | 25 | 11 | 41 | 1015 | 10 | N 18 | |
| Oggi h: 13:00 | Sereno | 26 | 11 | 39 | 1016 | 10 | N 18 | |
| Oggi h: 12:30 | Sereno | 25 | 12 | 44 | 1016 | 10 | N/NE 14.4 | |
| Oggi h: 12:00 | Sereno | 25 | 12 | 44 | 1016 | 10 | N 14.4 | |
| Oggi h: 11:30 | Sereno | 25 | 11 | 41 | 1016 | 10 | NE 21.6 | |
| Oggi h: 11:00 | Sereno | 24 | 12 | 47 | 1016 | 10 | N/NE 18 | |
| Oggi h: 10:30 | Sereno | 24 | 11 | 43 | 1017 | 10 | N/NE 18 | |
| Oggi h: 10:00 | Sereno | 24 | 12 | 47 | 1017 | 10 | N 18 | |
| Oggi h: 09:30 | Sereno | 23 | 12 | 49 | 1017 | 10 | N/NE 14.4 | |
| Oggi h: 09:00 | Sereno | 22 | 12 | 53 | 1017 | 10 | N/NE 18 | |
| Oggi h: 08:30 | Sereno | 22 | 12 | 53 | 1017 | 10 | N/NE 14.4 | |
| Oggi h: 08:00 | Sereno | 21 | 13 | 60 | 1017 | 10 | N/NE 14.4 | |
| Oggi h: 07:30 | Sereno | 20 | 14 | 68 | 1016 | 10 | N/NE 10.8 | |
| Oggi h: 07:00 | Sereno | 19 | 15 | 77 | 1016 | 10 | N/NE 10.8 | |
| Oggi h: 06:30 | Sereno | 18 | 15 | 82 | 1016 | 10 | N 10.8 | |
| Oggi h: 06:00 | Sereno | 18 | 15 | 82 | 1016 | 10 | N 7.2 | |
| Oggi h: 05:30 | Sereno | 17 | 14 | 82 | 1016 | 10 | N 10.8 | |
| Oggi h: 05:00 | Sereno | 17 | 14 | 82 | 1015 | 10 | N 10.8 | |
| Oggi h: 04:30 | Sereno | 17 | 14 | 82 | 1015 | 10 | N 10.8 | |
| Oggi h: 04:00 | Sereno | 17 | 15 | 88 | 1015 | 10 | N/NE 10.8 | |
| Oggi h: 03:30 | Sereno | 17 | 15 | 88 | 1015 | 10 | N/NE 10.8 | |
| Oggi h: 03:00 | Sereno | 18 | 15 | 82 | 1015 | 10 | N/NE 10.8 | |
| Oggi h: 02:30 | Sereno | 18 | 15 | 82 | 1015 | 10 | N 7.2 | |
| Oggi h: 02:00 | Sereno | 18 | 15 | 82 | 1015 | 10 | N 10.8 | |
| Oggi h: 01:30 | Sereno | 18 | 15 | 82 | 1015 | 10 | N 10.8 | |
| Oggi h: 01:00 | Sereno | 18 | 15 | 82 | 1015 | 10 | N/NE 10.8 | |
| Oggi h: 00:30 | Sereno | 18 | 15 | 82 | 1015 | 10 | N/NE 10.8 | |
| Oggi h: 00:00 | Sereno | 19 | 15 | 77 | 1015 | 10 | N 7.2 | |
| Ieri h: 23:30 | Sereno | 19 | 15 | 77 | 1015 | 10 | N/NE 10.8 | |
| Ieri h: 23:00 | Sereno | 20 | 15 | 72 | 1015 | 10 | N/NE 10.8 | |
| Ieri h: 22:30 | Sereno | 21 | 15 | 68 | 1015 | 10 | N/NE 10.8 | |
| Ieri h: 22:00 | Sereno | 21 | 15 | 68 | 1015 | 10 | N/NE 14.4 | |
| Ieri h: 21:30 | Sereno | 21 | 15 | 68 | 1014 | 10 | N/NE 14.4 | |
| Ieri h: 21:00 | Sereno | 22 | 15 | 64 | 1014 | 10 | N/NE 14.4 | |
| Ieri h: 20:30 | Sereno | 22 | 15 | 64 | 1014 | 10 | N/NE 10.8 | |
| Ieri h: 20:00 | Sereno | 22 | 15 | 64 | 1014 | 10 | N 10.8 | |
| Ieri h: 19:30 | Sereno | 23 | 15 | 60 | 1014 | 10 | N 10.8 | |
| Ieri h: 19:00 | Sereno | 23 | 16 | 64 | 1014 | 10 | N/NE 10.8 | |
| Ieri h: 18:30 | Sereno | 24 | 15 | 57 | 1013 | 10 | N/NE 14.4 | |
| Ieri h: 18:00 | Sereno | 24 | 15 | 57 | 1013 | 10 | N/NE 14.4 | |



